STW2401 ULLI-URWW

Flight info

Callsign STW2401
Flight time N/A
Altitude 39000
Route K0878F390 SUGIN1C SUGIN T873 TOKNU L4 LINRU T614 OSPER T828 OLBEG N72 ST ST2G
Aircraft B772/H-SDE2E3FGHIJ5LORVWXY/LB1D1

Departure

Time 2026-05-07 13:55
Airport Pulkovo Airport (ULLI)

Arrival

Time N/A
Airport Volgograd International Airport (URWW)
Time Latitude Longitude Altitude Speed Heading
2026-05-07 13:27 59.79651 30.26575 94 ft 0 kts 105°
2026-05-07 13:45 59.79654 30.26552 94 ft 2 kts 106°
2026-05-07 13:45 59.79659 30.26524 94 ft 2 kts 119°
2026-05-07 13:46 59.79667 30.26500 94 ft 2 kts 129°
2026-05-07 13:46 59.79677 30.26478 94 ft 2 kts 138°
2026-05-07 13:46 59.79689 30.26460 93 ft 2 kts 148°
2026-05-07 13:46 59.79702 30.26446 94 ft 2 kts 158°
2026-05-07 13:47 59.79716 30.26437 94 ft 2 kts 168°
2026-05-07 13:47 59.79731 30.26433 94 ft 2 kts 178°
2026-05-07 13:47 59.79745 30.26434 94 ft 2 kts 187°
2026-05-07 13:47 59.79759 30.26440 94 ft 1 kts 197°
2026-05-07 13:48 59.79762 30.26442 94 ft 0 kts 198°
2026-05-07 13:49 59.79762 30.26441 93 ft 1 kts 198°
2026-05-07 13:49 59.79726 30.26419 93 ft 9 kts 197°
2026-05-07 13:49 59.79646 30.26371 93 ft 14 kts 195°
2026-05-07 13:49 59.79551 30.26315 93 ft 11 kts 198°
2026-05-07 13:50 59.79526 30.26174 94 ft 13 kts 286°
2026-05-07 13:50 59.79555 30.25980 95 ft 15 kts 287°
2026-05-07 13:50 59.79587 30.25769 95 ft 16 kts 286°
2026-05-07 13:50 59.79621 30.25534 96 ft 18 kts 285°
2026-05-07 13:51 59.79659 30.25281 97 ft 19 kts 287°
2026-05-07 13:51 59.79700 30.25005 97 ft 21 kts 285°
2026-05-07 13:51 59.79746 30.24694 91 ft 25 kts 286°
2026-05-07 13:51 59.79799 30.24335 90 ft 27 kts 286°
2026-05-07 13:52 59.79856 30.23957 90 ft 29 kts 287°
2026-05-07 13:52 59.79916 30.23556 88 ft 31 kts 286°
2026-05-07 13:52 59.79977 30.23133 87 ft 32 kts 286°
2026-05-07 13:52 59.80043 30.22694 86 ft 32 kts 286°
2026-05-07 13:53 59.80096 30.22335 83 ft 24 kts 286°
2026-05-07 13:53 59.80114 30.22202 83 ft 6 kts 278°
2026-05-07 13:53 59.80103 30.22078 83 ft 11 kts 242°
2026-05-07 13:53 59.80047 30.21946 83 ft 12 kts 223°
2026-05-07 13:54 59.79972 30.21973 84 ft 13 kts 115°
2026-05-07 13:54 59.79950 30.22117 84 ft 11 kts 106°
2026-05-07 13:54 59.79924 30.22295 85 ft 19 kts 106°
2026-05-07 13:54 59.79836 30.22890 87 ft 82 kts 107°
2026-05-07 13:55 59.79601 30.24478 91 ft 153 kts 107°
2026-05-07 13:55 59.79287 30.26685 582 ft 168 kts 99°
2026-05-07 13:55 59.79058 30.28830 1531 ft 159 kts 100°
2026-05-07 13:55 59.78775 30.31015 1907 ft 172 kts 102°
2026-05-07 13:56 59.78444 30.33420 2231 ft 188 kts 102°
2026-05-07 13:56 59.78092 30.36023 2532 ft 205 kts 102°
2026-05-07 13:56 59.77705 30.38896 2886 ft 222 kts 102°
2026-05-07 13:56 59.77294 30.41941 3290 ft 237 kts 102°
2026-05-07 13:57 59.76857 30.45174 3775 ft 249 kts 103°
2026-05-07 13:57 59.76411 30.48455 4487 ft 251 kts 103°
2026-05-07 13:57 59.75959 30.51784 5098 ft 255 kts 103°
2026-05-07 13:57 59.75493 30.55205 5747 ft 258 kts 103°
2026-05-07 13:58 59.75021 30.58662 6382 ft 262 kts 103°
2026-05-07 13:58 59.74592 30.61803 6934 ft 265 kts 103°
2026-05-07 13:58 59.74136 30.65134 7500 ft 269 kts 104°
2026-05-07 13:58 59.73602 30.69020 8114 ft 275 kts 104°
2026-05-07 13:59 59.73088 30.72752 8701 ft 279 kts 104°
2026-05-07 13:59 59.72573 30.76485 9258 ft 284 kts 104°
2026-05-07 13:59 59.72045 30.80308 9789 ft 288 kts 104°
2026-05-07 13:59 59.71508 30.84180 10341 ft 294 kts 105°
2026-05-07 14:00 59.71044 30.87519 10489 ft 310 kts 105°
2026-05-07 14:00 59.70369 30.92363 10612 ft 333 kts 105°
2026-05-07 14:00 59.69736 30.96893 10700 ft 352 kts 105°
2026-05-07 14:00 59.69062 31.01701 10846 ft 369 kts 105°
2026-05-07 14:01 59.68359 31.06703 11134 ft 380 kts 105°
2026-05-07 14:01 59.67645 31.11768 11623 ft 387 kts 106°
2026-05-07 14:01 59.66909 31.16969 12173 ft 392 kts 106°
2026-05-07 14:01 59.66171 31.22170 12755 ft 397 kts 107°
2026-05-07 14:02 59.65408 31.27527 13321 ft 404 kts 107°
2026-05-07 14:02 59.64635 31.32939 13932 ft 410 kts 107°
2026-05-07 14:02 59.63858 31.38352 14590 ft 416 kts 108°
2026-05-07 14:02 59.63059 31.43911 15310 ft 422 kts 108°
2026-05-07 14:03 59.62253 31.49492 16029 ft 427 kts 108°
2026-05-07 14:03 59.61433 31.55148 16781 ft 431 kts 108°
2026-05-07 14:03 59.60600 31.60883 17440 ft 437 kts 109°
2026-05-07 14:03 59.59750 31.66712 18099 ft 443 kts 110°
2026-05-07 14:04 59.58892 31.72572 18727 ft 449 kts 110°
2026-05-07 14:04 59.58021 31.78498 19355 ft 455 kts 110°
2026-05-07 14:04 59.57133 31.84517 20023 ft 459 kts 110°
2026-05-07 14:04 59.56232 31.90609 20637 ft 465 kts 110°
2026-05-07 14:05 59.55312 31.96801 21226 ft 471 kts 111°
2026-05-07 14:05 59.54345 32.02987 21813 ft 473 kts 115°
2026-05-07 14:05 59.52982 32.08847 22372 ft 471 kts 125°
2026-05-07 14:05 59.51149 32.14219 22904 ft 469 kts 135°
2026-05-07 14:06 59.48989 32.18919 23482 ft 467 kts 141°
2026-05-07 14:06 59.46711 32.23486 24176 ft 468 kts 142°
2026-05-07 14:06 59.44409 32.28045 24836 ft 470 kts 142°
2026-05-07 14:06 59.42086 32.32617 25442 ft 473 kts 142°
2026-05-07 14:07 59.39778 32.37138 26072 ft 475 kts 142°
2026-05-07 14:07 59.37408 32.41761 26678 ft 478 kts 143°
2026-05-07 14:07 59.35053 32.46338 27243 ft 481 kts 142°
2026-05-07 14:07 59.32648 32.50999 27830 ft 484 kts 143°
2026-05-07 14:08 59.30257 32.55619 28346 ft 488 kts 143°
2026-05-07 14:08 59.27824 32.60307 28792 ft 493 kts 143°
2026-05-07 14:08 59.25355 32.65054 29309 ft 496 kts 144°
2026-05-07 14:08 59.22895 32.69774 29824 ft 499 kts 144°
2026-05-07 14:09 59.20416 32.74520 30434 ft 500 kts 144°
2026-05-07 14:09 59.17955 32.79225 31112 ft 498 kts 144°
2026-05-07 14:09 59.15462 32.83979 31807 ft 496 kts 143°
2026-05-07 14:09 59.13010 32.88644 32423 ft 495 kts 144°
2026-05-07 14:10 59.10554 32.93303 33033 ft 493 kts 143°
2026-05-07 14:10 59.08100 32.97949 33652 ft 492 kts 143°
2026-05-07 14:10 59.05643 33.02592 34258 ft 490 kts 143°
2026-05-07 14:10 59.03222 33.07155 34813 ft 489 kts 143°
2026-05-07 14:11 59.00767 33.11774 35242 ft 489 kts 143°
2026-05-07 14:11 58.98377 33.16257 35474 ft 489 kts 143°
2026-05-07 14:11 58.95916 33.20867 35708 ft 490 kts 143°
2026-05-07 14:11 58.93465 33.25445 35943 ft 491 kts 143°
2026-05-07 14:12 58.91017 33.30011 36180 ft 492 kts 143°
2026-05-07 14:12 58.88664 33.34391 36434 ft 493 kts 143°
2026-05-07 14:12 58.86169 33.39026 36795 ft 493 kts 142°
2026-05-07 14:12 58.83711 33.43583 37129 ft 493 kts 142°
2026-05-07 14:13 58.81237 33.48158 37409 ft 494 kts 142°
2026-05-07 14:13 58.78741 33.52765 37709 ft 495 kts 142°
2026-05-07 14:13 58.76252 33.57349 38011 ft 495 kts 142°
2026-05-07 14:13 58.73762 33.61927 38229 ft 496 kts 142°
2026-05-07 14:14 58.71275 33.66489 38515 ft 496 kts 142°
2026-05-07 14:14 58.68792 33.71036 38756 ft 496 kts 142°
2026-05-07 14:14 58.66558 33.75117 38942 ft 497 kts 142°
2026-05-07 14:15 58.65418 33.77196 38963 ft 498 kts 142°
2026-05-07 14:15 58.62196 33.83063 38986 ft 498 kts 142°
2026-05-07 14:16 58.57181 33.92169 38955 ft 495 kts 142°
2026-05-07 14:16 58.52169 34.01228 38957 ft 496 kts 142°
2026-05-07 14:17 58.47168 34.10229 38974 ft 495 kts 142°
2026-05-07 14:17 58.42157 34.19213 38974 ft 494 kts 142°
2026-05-07 14:18 58.37124 34.28198 38956 ft 494 kts 142°
2026-05-07 14:18 58.32089 34.37149 38978 ft 496 kts 142°
2026-05-07 14:19 58.27069 34.46039 38968 ft 495 kts 142°
2026-05-07 14:19 58.21966 34.54838 38965 ft 490 kts 147°
2026-05-07 14:20 58.16146 34.61155 38953 ft 478 kts 161°
2026-05-07 14:20 58.10034 34.66179 38950 ft 478 kts 163°
2026-05-07 14:21 58.03962 34.71111 38940 ft 476 kts 163°
2026-05-07 14:21 57.97873 34.76021 38920 ft 477 kts 163°
2026-05-07 14:22 57.91765 34.80924 38931 ft 476 kts 163°
2026-05-07 14:22 57.85683 34.85783 38944 ft 477 kts 163°
2026-05-07 14:23 57.79557 34.90658 38939 ft 476 kts 163°
2026-05-07 14:23 57.73468 34.95485 38894 ft 473 kts 163°
2026-05-07 14:24 57.67612 35.01158 38916 ft 480 kts 155°
2026-05-07 14:24 57.61839 35.07445 38900 ft 479 kts 155°
2026-05-07 14:25 57.56065 35.13699 38900 ft 481 kts 155°
2026-05-07 14:25 57.50270 35.19949 38908 ft 480 kts 155°
2026-05-07 14:26 57.44524 35.26119 38879 ft 479 kts 155°
2026-05-07 14:26 57.38703 35.32342 38915 ft 480 kts 154°
2026-05-07 14:27 57.32923 35.38500 38876 ft 478 kts 154°
2026-05-07 14:27 57.27185 35.44590 38865 ft 478 kts 154°
2026-05-07 14:28 57.21402 35.50705 38893 ft 478 kts 155°
2026-05-07 14:28 57.15558 35.56856 38866 ft 488 kts 154°
2026-05-07 14:29 57.09578 35.63131 38849 ft 495 kts 154°
2026-05-07 14:29 57.03569 35.69413 38869 ft 500 kts 155°
2026-05-07 14:30 56.97477 35.75761 38821 ft 504 kts 155°
2026-05-07 14:30 56.91352 35.82118 38855 ft 504 kts 155°
2026-05-07 14:31 56.85300 35.88375 38867 ft 506 kts 155°
2026-05-07 14:31 56.79153 35.94706 38830 ft 505 kts 155°
2026-05-07 14:32 56.73007 36.01012 38897 ft 507 kts 155°
2026-05-07 14:32 56.66808 36.07350 38855 ft 508 kts 155°
2026-05-07 14:33 56.60639 36.13634 38879 ft 509 kts 154°
2026-05-07 14:33 56.54464 36.19902 38860 ft 510 kts 155°
2026-05-07 14:34 56.48261 36.26173 38865 ft 510 kts 154°
2026-05-07 14:34 56.42067 36.32411 38845 ft 512 kts 155°
2026-05-07 14:35 56.36168 36.39611 38849 ft 517 kts 141°
2026-05-07 14:35 56.31424 36.49563 38850 ft 524 kts 129°
2026-05-07 14:36 56.27028 36.60085 38852 ft 525 kts 129°
2026-05-07 14:36 56.22684 36.70430 38837 ft 523 kts 130°
2026-05-07 14:37 56.18290 36.80832 38819 ft 522 kts 130°
2026-05-07 14:37 56.11708 36.96317 38859 ft 522 kts 130°
2026-05-07 14:38 56.07288 37.06660 38871 ft 521 kts 129°
2026-05-07 14:38 56.02980 37.16911 38899 ft 520 kts 129°
2026-05-07 14:39 55.98593 37.27122 38913 ft 516 kts 134°
2026-05-07 14:39 55.93377 37.35164 38912 ft 511 kts 148°
2026-05-07 14:40 55.88979 37.40462 38922 ft 511 kts 148°
2026-05-07 14:40 55.83411 37.47089 38901 ft 512 kts 148°
2026-05-07 14:41 55.77488 37.54109 38902 ft 511 kts 148°
2026-05-07 14:41 55.71667 37.60978 38898 ft 511 kts 148°
2026-05-07 14:42 55.66738 37.66774 38877 ft 512 kts 149°